EHI
41 40 41 44 50 54 55 51 44 37 32 28 25 24 23 22 22 22 23 20 14 11 9 7 7 5 4 5 6 7 8 7 5 2 1 0 1 2 2 2 2 1 1
41 42 44 46 49 52 52 50 45 38 32 29 26 24 24 24 22 22 24 21 17 12 9 8 8 7 5 7 8 8 7 7 4 1 0 0 1 1 1 2 2 2 2
42 45 47 47 47 48 47 46 45 40 34 30 26 24 24 25 23 23 23 21 17 13 10 10 10 10 10 10 11 9 7 5 3 1 0 0 0 0 0 1 1 2 3
43 46 47 48 48 46 43 42 43 41 36 31 28 25 24 23 24 25 24 21 18 15 12 12 14 16 15 14 13 12 9 5 2 2 1 1 0 0 0 0 1 2 2
43 45 47 49 48 44 40 39 42 41 37 32 29 27 25 25 25 26 26 24 21 17 15 16 18 21 20 18 16 15 11 6 3 3 4 2 1 0 0 0 0 1 1
39 42 46 47 45 41 37 36 39 39 36 31 29 30 30 29 27 26 26 25 22 20 19 18 19 22 22 20 18 16 12 7 4 3 3 2 2 1 0 0 0 0 1
33 37 42 43 40 37 34 33 36 36 33 29 29 31 32 32 29 26 23 22 20 20 21 20 19 20 19 18 18 15 11 7 5 3 2 2 3 3 2 1 0 0 0
30 34 38 39 37 34 31 33 35 35 32 29 28 29 30 31 29 25 23 21 20 20 22 22 19 18 15 15 16 14 10 8 7 4 2 1 2 2 2 2 1 0 0
29 33 37 37 35 32 30 32 34 34 32 29 26 25 25 27 26 24 22 21 21 22 24 23 20 16 14 13 13 12 9 9 8 5 3 2 1 1 1 2 1 0 0
29 33 36 36 34 31 29 30 31 31 29 26 24 22 21 20 20 20 20 19 20 21 23 22 18 14 11 10 10 9 8 8 7 6 5 4 3 2 1 1 1 0 0
31 34 36 35 31 27 25 25 27 27 26 25 23 21 18 16 14 15 17 18 18 18 18 17 14 10 7 6 7 7 6 7 7 6 6 5 4 2 1 1 1 0 0
31 32 34 32 26 21 18 18 20 22 23 22 21 20 18 15 13 13 15 17 17 15 14 13 9 6 4 5 6 5 5 5 6 6 6 5 4 3 2 1 1 0 0
25 26 27 26 21 19 17 14 13 15 17 16 17 18 18 17 15 13 13 15 16 14 13 12 9 6 5 6 7 6 5 4 4 4 5 4 4 3 2 1 0 0 0
20 20 21 21 19 19 19 15 12 12 13 13 14 15 16 16 15 13 13 14 16 15 14 13 11 8 6 6 7 7 6 4 3 4 4 4 3 2 1 0 0 1 1
17 18 20 21 20 20 21 18 13 12 13 13 12 12 13 13 12 12 11 12 14 15 15 14 12 9 7 5 6 7 6 5 4 4 4 3 2 1 0 0 0 1 1
15 18 22 23 23 23 21 17 13 12 13 12 10 10 10 11 10 10 10 10 11 13 13 13 12 9 6 3 3 4 6 6 5 4 2 1 1 0 0 0 0 0 1
17 20 24 25 25 24 21 16 11 10 11 10 9 9 10 11 10 9 9 7 8 10 11 11 11 9 5 2 1 2 3 5 5 4 2 1 0 0 0 0 0 0 0
21 23 25 25 24 23 20 15 10 8 9 9 8 9 11 11 10 8 7 7 8 10 10 9 8 7 4 1 0 0 1 3 3 3 2 1 0 0 0 1 1 0 0
21 22 23 23 22 20 17 14 11 9 7 8 8 10 12 13 11 8 8 8 9 10 9 7 6 6 3 1 0 0 0 1 1 1 1 1 0 0 0 1 1 0 0
16 18 20 20 18 17 15 14 12 10 8 8 9 10 13 15 14 11 9 8 7 7 6 6 6 6 4 2 0 0 0 0 0 0 0 0 0 0 0 0 0 0 0
12 14 16 16 14 15 14 13 12 11 10 10 10 11 14 15 14 13 11 7 5 4 4 6 7 7 6 3 1 0 0 0 0 0 0 0 0 0 0 0 0 0 0
11 11 13 14 13 13 13 11 10 10 10 10 10 11 13 13 12 12 11 6 3 3 4 5 6 7 6 4 1 0 0 0 0 0 0 0 0 0 0 0 0 0 0
10 10 12 13 12 12 11 10 9 8 8 8 8 10 11 10 10 10 9 5 3 3 4 3 4 5 6 4 1 0 0 0 0 0 0 0 0 0 0 0 0 0 0
11 11 12 12 11 10 10 9 8 7 6 7 7 8 8 7 7 7 5 4 3 3 3 2 2 4 5 5 2 1 0 0 0 0 0 0 0 0 0 0 0 0 0
11 12 13 13 11 9 9 8 7 7 6 6 6 6 6 5 4 4 3 2 2 2 2 2 1 2 3 3 2 1 0 0 0 0 0 0 0 0 0 0 0 0 0
10 11 13 12 10 9 8 7 7 6 6 6 6 6 5 4 4 3 2 1 1 1 1 1 1 1 1 1 1 0 0 0 0 0 0 0 0 0 0 0 0 0 0
Wind_Speed
8 8 7 7 8 7 6 6 6 5 4 3 3 3 2 2 2 3 4 4 3 2 2 2 2 2 2 2 2 1 2 1 1 1 1 1 2 3 3 3 3 3 4
8 9 8 7 7 7 6 6 5 5 4 3 2 2 2 2 2 2 3 3 3 3 3 2 2 2 2 2 2 1 1 2 2 1 1 2 2 2 4 3 4 4 3
8 8 8 7 8 7 6 5 5 5 4 4 3 2 2 2 2 3 2 3 3 3 2 3 2 2 2 2 3 2 2 1 2 2 1 1 1 1 2 3 3 3 3
8 9 9 8 8 7 7 5 5 4 4 4 4 4 3 3 3 2 2 3 3 3 3 3 3 2 2 2 3 3 2 2 2 2 2 1 1 0 1 1 2 3 3
9 9 9 8 7 7 7 6 5 4 4 3 3 3 2 2 2 2 3 3 3 3 3 3 3 3 2 2 2 2 3 2 2 2 2 2 2 2 1 2 2 2 2
8 9 9 8 7 7 6 6 6 4 4 3 3 3 2 2 2 2 2 2 2 2 3 3 3 3 3 2 2 2 3 3 2 2 1 2 2 2 2 2 2 2 2
6 8 9 9 8 8 7 7 6 5 5 4 3 3 2 2 2 2 2 2 1 2 2 3 3 3 3 3 3 3 3 4 3 3 2 2 1 1 1 1 1 1 1
7 7 8 9 8 8 7 7 7 5 4 4 3 3 3 2 2 1 1 2 1 1 2 2 2 3 3 4 3 3 4 3 3 4 3 2 1 1 1 1 1 1 1
7 7 7 8 8 8 7 7 7 6 5 4 3 3 3 2 2 2 2 1 1 2 3 2 3 2 3 3 4 3 4 3 4 4 3 3 2 2 2 2 2 2 2
6 6 6 7 8 7 7 6 6 5 5 4 3 3 3 3 2 1 2 1 1 1 2 3 3 3 3 3 3 3 4 3 3 3 3 3 2 2 2 2 2 2 2
6 5 6 6 7 7 7 6 6 5 4 4 3 3 3 3 2 2 2 1 1 2 2 2 2 3 3 3 3 3 4 4 4 4 4 4 3 2 2 2 2 2 2
5 5 5 5 5 7 7 6 5 5 5 4 4 3 3 3 3 2 1 1 2 2 2 2 2 3 3 3 4 4 4 4 4 4 4 4 3 3 2 1 1 1 2
4 4 4 4 4 4 5 5 4 4 4 4 3 3 3 3 2 2 2 2 2 2 2 3 3 3 2 3 3 3 3 3 3 4 4 4 4 4 3 3 3 2 2
5 5 4 3 3 3 3 4 3 3 3 3 3 3 3 3 2 2 2 2 1 2 2 2 2 2 2 2 2 2 2 3 3 3 4 4 4 4 3 4 3 3 2
4 4 4 3 2 2 3 2 3 3 3 3 3 3 3 3 3 2 2 2 1 1 1 1 1 2 1 1 1 1 2 2 3 3 3 3 4 4 3 3 3 3 2
4 3 4 4 3 1 1 1 2 2 2 2 2 2 2 3 3 2 2 1 1 0 0 1 1 1 1 1 1 1 2 2 3 2 2 3 4 4 5 4 4 4 4
3 3 2 3 2 2 1 2 2 2 2 2 2 3 3 3 3 3 2 2 1 1 1 1 1 1 1 2 2 1 2 3 2 2 3 4 3 4 4 4 5 5 7
3 2 2 2 2 2 2 1 2 2 2 2 1 2 2 2 2 2 2 2 2 2 2 1 2 1 1 3 2 2 2 3 3 3 3 3 3 3 3 4 4 4 4
3 3 2 2 3 2 2 0 1 2 2 2 1 2 2 1 2 2 2 2 1 2 2 2 2 2 1 2 3 3 2 2 3 3 3 3 3 4 4 4 4 4 4
4 4 3 3 3 2 1 0 1 1 1 1 1 1 1 1 1 1 1 1 1 2 3 2 2 2 1 2 3 4 3 2 2 2 2 3 3 3 3 3 3 4 4
5 4 4 3 2 2 2 1 1 1 1 1 1 1 1 1 1 1 1 1 2 2 2 2 2 2 2 3 3 4 3 3 2 2 2 1 2 3 4 4 4 5 4
5 5 4 3 3 3 2 1 2 2 2 2 2 2 1 1 0 1 1 1 2 2 2 2 2 2 2 2 3 4 4 3 3 3 2 1 1 3 5 5 5 6 4
4 4 4 4 3 3 2 1 2 2 2 2 2 2 1 1 0 1 1 2 2 2 2 2 2 1 1 1 2 3 3 4 3 2 2 3 3 3 3 5 5 4 3
4 4 4 3 3 3 2 2 2 2 2 2 2 1 1 1 1 0 1 1 1 1 1 1 2 2 1 0 0 1 2 2 2 2 2 3 4 4 4 3 4 4 4
3 3 3 2 2 2 2 3 2 2 2 1 1 1 1 1 1 1 1 1 1 1 1 1 2 2 1 1 1 1 2 2 1 2 3 3 2 3 3 4 4 4 4
2 2 2 2 2 2 2 2 2 2 2 1 1 2 2 1 1 1 1 3 2 2 1 0 1 1 1 0 1 2 3 3 3 2 3 3 4 5 4 4 4 4 4
Wind_Direction
161 145 139 138 138 138 146 152 159 152 158 162 177 177 175 179 169 162 145 154 166 164 171 187 161 166 159 151 154 148 169 169 144 139 161 203 204 184 181 179 175 181 184
160 148 144 143 146 149 154 156 157 158 172 162 174 180 172 179 164 145 147 161 166 175 184 175 169 162 158 160 167 169 190 188 160 165 194 189 193 207 203 180 185 193 186
160 155 155 156 157 156 159 164 161 161 171 162 171 180 166 177 168 157 160 172 172 179 176 169 177 167 174 171 176 183 199 205 183 186 196 184 188 162 178 192 188 179 179
164 158 159 163 163 160 160 149 148 153 164 176 182 182 177 184 179 163 161 165 166 172 171 176 178 180 180 173 186 180 188 200 213 197 205 180 103 134 153 181 183 181 185
166 163 161 161 160 157 154 148 139 143 154 172 174 179 181 178 159 145 154 165 167 178 180 177 174 179 184 184 181 165 189 200 214 215 189 196 197 206 191 188 186 193 190
166 163 158 153 152 149 149 145 145 151 152 164 161 168 176 171 161 151 165 173 163 173 179 180 173 179 184 185 182 186 195 207 220 233 217 200 195 196 201 204 197 187 192
153 158 158 154 153 152 152 152 151 154 157 161 162 164 174 173 177 179 180 176 167 173 176 182 179 191 191 187 191 191 207 206 206 213 225 234 213 173 194 204 216 190 195
156 161 155 153 155 154 151 151 151 149 158 162 160 170 183 185 172 186 195 191 180 183 166 175 184 196 199 199 194 199 206 206 208 218 214 219 215 194 193 212 209 207 227
156 152 153 148 150 153 151 155 152 155 163 167 173 179 188 186 174 190 209 210 193 185 165 188 194 199 210 208 194 209 211 198 203 212 208 211 209 217 208 216 209 212 227
143 147 152 148 150 149 147 149 152 160 167 169 183 180 180 184 190 203 201 199 201 191 182 188 189 195 206 209 207 214 208 204 211 205 204 202 208 220 217 215 224 216 210
147 145 146 147 149 146 149 152 153 160 169 170 173 177 184 185 189 210 195 187 198 195 199 194 194 201 208 205 211 221 209 205 212 209 202 204 208 219 227 215 216 213 205
135 145 134 131 144 150 151 153 162 169 171 167 166 168 172 181 191 194 188 191 201 206 206 201 210 215 215 213 214 216 213 210 209 211 206 211 217 213 224 237 234 218 208
140 133 125 127 122 139 144 148 160 160 160 162 166 164 178 181 180 175 184 201 209 209 204 195 205 214 209 212 214 211 206 216 216 213 210 210 214 216 209 215 227 229 223
138 133 128 122 119 126 132 146 157 155 153 159 165 168 178 175 172 173 174 193 207 208 199 202 211 214 215 214 205 208 208 215 218 216 215 214 209 215 216 220 217 220 219
139 131 129 116 113 118 138 149 152 146 149 166 169 172 175 173 167 164 166 172 208 212 188 211 234 224 208 214 218 248 224 223 229 224 224 219 209 212 215 227 215 214 216
139 125 130 133 123 109 160 160 162 147 146 175 171 159 160 169 165 160 158 149 127 29 18 249 257 269 249 118 128 276 254 235 231 227 232 231 210 202 200 219 226 221 221
103 100 112 115 111 111 154 160 146 150 155 176 171 169 173 170 167 170 164 169 175 205 237 258 242 187 100 143 162 232 266 260 245 232 232 248 233 194 199 214 224 228 228
69 85 94 95 91 81 67 120 154 163 164 165 162 169 177 172 171 172 170 185 194 208 223 232 241 219 183 167 178 217 244 261 257 246 238 240 236 233 217 215 222 225 222
57 57 78 96 92 81 65 43 177 173 171 164 176 182 186 185 179 177 182 191 205 222 223 228 223 226 189 198 192 206 243 246 245 244 250 247 230 227 217 222 225 230 236
55 57 59 77 79 68 64 353 99 149 183 184 185 169 175 185 196 179 179 194 221 223 224 224 223 227 210 210 206 205 237 253 254 243 237 249 237 214 205 229 230 234 241
55 58 62 65 64 58 56 25 43 44 27 42 59 73 121 185 195 156 170 204 243 249 241 226 225 224 215 184 187 196 227 260 269 266 255 243 208 214 218 229 238 238 245
49 50 53 54 54 53 52 34 27 27 38 45 42 45 56 283 178 169 220 227 238 249 249 239 238 228 199 172 187 200 224 262 273 275 286 292 240 251 247 243 244 243 240
45 44 50 57 58 52 46 36 31 31 45 43 40 41 19 356 277 206 231 240 239 243 249 257 262 255 199 161 175 208 238 254 256 280 290 278 263 261 254 248 249 241 231
44 38 44 57 54 47 29 33 49 58 60 49 41 23 7 338 326 294 254 257 266 271 287 293 289 285 250 139 168 254 261 263 264 278 285 269 252 256 257 249 249 241 235
35 34 50 58 52 46 30 25 41 55 61 50 16 340 322 334 353 329 335 314 360 312 267 300 313 306 296 324 335 274 264 265 261 260 253 247 241 241 241 238 235 236 235
34 38 47 44 46 42 35 34 43 45 53 32 347 328 329 343 326 318 357 15 13 49 105 175 276 338 342 253 263 271 267 256 237 242 247 246 246 245 243 242 239 235 237